Driggs, ID

12:35 PM MDT on April 27, 2017 (GMT -0600)
Driggs

Weather History for KDIJ - May, 2012

Change the Weather History Date:

Saturday, May 12, 2012

  Actual Average (KJAC) Record (KJAC)
Temperature  
Mean Temperature 46 °F -  
Max Temperature 63 °F 56 °F 79 °F (1960)
Min Temperature 29 °F 27 °F 9 °F (1981)
Degree Days  
Heating Degree Days 19    
Moisture  
Dew Point 20 °F    
Average Humidity 40    
Maximum Humidity 69    
Minimum Humidity 15    
Precipitation  
Precipitation 0.00 in - - ()
Sea Level Pressure  
Sea Level Pressure 30.17 in    
Wind  
Wind Speed 4 mph (NW)    
Max Wind Speed 10 mph    
Max Gust Speed -    
Visibility 10 miles    
Events      
Averages and records for this station are not official NWS values.
T = Trace of Precipitation, MM = Missing Value Source: NWS Daily Summary

Daily Weather History Graph

Daily Weather History Graph

Search for Another Location

Airport or City:

Trip Planner

Search our weather history database for the weather conditions in past years. The results will help you decide how hot, cold, wet, or windy it might be!

Date:

Astronomy

May. 12, 2012 Rise Set
Actual Time 6:01 AM MDT 8:40 PM MDT
Civil Twilight 5:28 AM MDT 9:13 PM MDT
Nautical Twilight 4:47 AM MDT 9:54 PM MDT
Astronomical Twilight 4:00 AM MDT 10:42 PM MDT
Moon 1:52 AM MDT (5/12) 12:49 PM MDT (5/12)
Length of Visible Light 15h 44m
Length of Day
14h 38m
Waning Gibbous, 52% of the Moon is Illuminated
May 12
Waning Gibbous
May 12
Last Quarter
May 20
New
May 28
First Quarter
Jun 4
Full

Hourly Weather History & Observations

Time (MDT) Temp. Windchill Dew Point Humidity Pressure Visibility Wind Dir Wind Speed Gust Speed Precip Events Conditions
12:56 AM 30.0 °F 26.5 °F 21.0 °F 69% 30.14 in 10.0 mi East 3.5 mph - N/A   Clear
1:56 AM 32.0 °F 28.7 °F 20.1 °F 62% 30.14 in 10.0 mi SE 3.5 mph - N/A   Clear
2:56 AM 29.1 °F 22.1 °F 20.1 °F 69% 30.14 in 10.0 mi NE 6.9 mph - N/A   Clear
3:56 AM 31.1 °F - 20.1 °F 64% 30.15 in 10.0 mi Calm Calm - N/A   Clear
4:56 AM 31.1 °F 26.4 °F 20.1 °F 64% 30.16 in 10.0 mi SE 4.6 mph - N/A   Clear
5:56 AM 29.1 °F - 20.1 °F 69% 30.19 in 10.0 mi Calm Calm - N/A   Clear
6:56 AM 32.0 °F - 22.1 °F 67% 30.19 in 10.0 mi Calm Calm - N/A   Clear
7:56 AM 38.8 °F - 23.0 °F 53% 30.19 in 10.0 mi Calm Calm - N/A   Clear
8:56 AM 46.9 °F - 25.2 °F 43% 30.18 in 10.0 mi Calm Calm - N/A   Clear
9:56 AM 50.9 °F - 24.1 °F 35% 30.19 in 10.0 mi Variable 4.6 mph - N/A   Clear
10:56 AM 55.9 °F - 23.0 °F 28% 30.19 in 10.0 mi Variable 6.9 mph - N/A   Clear
11:56 AM 57.9 °F - 21.0 °F 24% 30.17 in 10.0 mi WNW 6.9 mph - N/A   Clear
12:56 PM 59.0 °F - 20.1 °F 22% 30.18 in 10.0 mi Calm Calm - N/A   Clear
1:56 PM 61.0 °F - 20.1 °F 21% 30.16 in 10.0 mi Variable 4.6 mph - N/A   Clear
2:56 PM 61.9 °F - 16.2 °F 17% 30.17 in 10.0 mi NW 9.2 mph - N/A   Clear
3:56 PM 61.9 °F - 13.1 °F 15% 30.15 in 10.0 mi Variable 6.9 mph - N/A   Clear
4:56 PM 63.0 °F - 16.2 °F 16% 30.15 in 10.0 mi WNW 10.4 mph - N/A   Clear
5:56 PM 63.0 °F - 14.0 °F 15% 30.16 in 10.0 mi NW 9.2 mph - N/A   Clear
6:56 PM 61.9 °F - 16.2 °F 17% 30.16 in 10.0 mi NW 8.1 mph - N/A   Clear
7:56 PM 57.9 °F - 23.0 °F 26% 30.15 in 10.0 mi WNW 8.1 mph - N/A   Clear
8:56 PM 52.9 °F - 21.0 °F 29% 30.15 in 10.0 mi NW 6.9 mph - N/A   Clear
9:56 PM 43.0 °F 39.5 °F 23.0 °F 45% 30.20 in 10.0 mi ESE 5.8 mph - N/A   Clear
10:56 PM 41.9 °F 40.0 °F 23.0 °F 47% 30.19 in 10.0 mi Variable 3.5 mph - N/A   Clear